WZZ915 LZIB-LQTZ

Flight info

Callsign WZZ915
Flight time 0h 49m
Altitude 29000
Route VAMOG DCT SIRDU DCT OSDUK/N0420F280 DCT LAKIK DCT GUBOK/N0371F190 N131 DER
Aircraft A21N/M-SDE3FGHIRWY/LB1

Departure

Time 2026-04-24 15:46
Airport M. R. Štefánik Airport (LZIB)

Arrival

Time 2026-04-24 16:35
Airport Tuzla International Airport (LQTZ)
Time Latitude Longitude Altitude Speed Heading
2026-04-24 15:11 48.17004 17.20233 435 ft 0 kts 312°
2026-04-24 15:35 48.16999 17.20241 435 ft 2 kts 312°
2026-04-24 15:35 48.16989 17.20258 435 ft 2 kts 312°
2026-04-24 15:36 48.16976 17.20272 435 ft 2 kts 342°
2026-04-24 15:36 48.16948 17.20268 434 ft 2 kts 33°
2026-04-24 15:36 48.16942 17.20262 434 ft 1 kts 48°
2026-04-24 15:37 48.16938 17.20256 434 ft 0 kts 44°
2026-04-24 15:38 48.16941 17.20260 434 ft 1 kts 44°
2026-04-24 15:39 48.16959 17.20284 434 ft 5 kts 42°
2026-04-24 15:39 48.16993 17.20333 435 ft 7 kts 44°
2026-04-24 15:39 48.17034 17.20391 434 ft 8 kts 43°
2026-04-24 15:39 48.17082 17.20460 433 ft 10 kts 44°
2026-04-24 15:40 48.17135 17.20536 432 ft 10 kts 43°
2026-04-24 15:40 48.17165 17.20627 432 ft 9 kts 96°
2026-04-24 15:40 48.17122 17.20723 431 ft 12 kts 133°
2026-04-24 15:40 48.17055 17.20826 429 ft 14 kts 134°
2026-04-24 15:41 48.16981 17.20939 429 ft 15 kts 133°
2026-04-24 15:41 48.16908 17.21055 429 ft 15 kts 133°
2026-04-24 15:41 48.16834 17.21170 429 ft 15 kts 134°
2026-04-24 15:41 48.16759 17.21285 429 ft 15 kts 134°
2026-04-24 15:42 48.16684 17.21402 429 ft 15 kts 133°
2026-04-24 15:42 48.16608 17.21523 429 ft 15 kts 134°
2026-04-24 15:42 48.16534 17.21638 431 ft 14 kts 134°
2026-04-24 15:42 48.16447 17.21771 432 ft 19 kts 134°
2026-04-24 15:43 48.16357 17.21912 433 ft 18 kts 133°
2026-04-24 15:43 48.16272 17.22042 435 ft 16 kts 134°
2026-04-24 15:43 48.16190 17.22169 435 ft 17 kts 134°
2026-04-24 15:43 48.16109 17.22295 435 ft 17 kts 134°
2026-04-24 15:44 48.16026 17.22424 435 ft 17 kts 134°
2026-04-24 15:44 48.15944 17.22553 434 ft 17 kts 133°
2026-04-24 15:44 48.15854 17.22693 432 ft 19 kts 134°
2026-04-24 15:44 48.15762 17.22834 432 ft 18 kts 133°
2026-04-24 15:45 48.15695 17.22986 432 ft 17 kts 91°
2026-04-24 15:45 48.15677 17.23134 432 ft 13 kts 76°
2026-04-24 15:45 48.15753 17.23204 430 ft 14 kts 343°
2026-04-24 15:45 48.15829 17.23097 430 ft 18 kts 314°
2026-04-24 15:46 48.16037 17.22776 432 ft 76 kts 314°
2026-04-24 15:46 48.16560 17.21967 432 ft 137 kts 313°
2026-04-24 15:46 48.17319 17.20799 591 ft 170 kts 315°
2026-04-24 15:46 48.18158 17.19565 1265 ft 169 kts 323°
2026-04-24 15:47 48.19230 17.19206 1941 ft 167 kts 11°
2026-04-24 15:47 48.20143 17.20307 2463 ft 177 kts 52°
2026-04-24 15:47 48.20545 17.22068 2924 ft 187 kts 77°
2026-04-24 15:47 48.20650 17.24007 3425 ft 189 kts 81°
2026-04-24 15:48 48.20721 17.25997 3834 ft 197 kts 81°
2026-04-24 15:48 48.20803 17.28114 4130 ft 211 kts 81°
2026-04-24 15:48 48.20896 17.30366 4433 ft 226 kts 82°
2026-04-24 15:48 48.21005 17.32755 4887 ft 234 kts 81°
2026-04-24 15:49 48.21123 17.35196 5449 ft 236 kts 82°
2026-04-24 15:49 48.21251 17.37666 6011 ft 239 kts 81°
2026-04-24 15:49 48.21381 17.40140 6545 ft 243 kts 81°
2026-04-24 15:49 48.21226 17.42744 6915 ft 263 kts 103°
2026-04-24 15:50 48.20540 17.45386 7215 ft 283 kts 112°
2026-04-24 15:50 48.19706 17.48070 7697 ft 293 kts 112°
2026-04-24 15:50 48.18858 17.50912 8196 ft 303 kts 111°
2026-04-24 15:50 48.17783 17.53650 8771 ft 312 kts 133°
2026-04-24 15:51 48.15969 17.55367 9449 ft 313 kts 164°
2026-04-24 15:51 48.13844 17.56030 10083 ft 315 kts 172°
2026-04-24 15:51 48.11668 17.56560 10503 ft 327 kts 172°
2026-04-24 15:51 48.09369 17.57147 10766 ft 343 kts 171°
2026-04-24 15:52 48.06955 17.57811 11121 ft 357 kts 170°
2026-04-24 15:52 48.04517 17.58517 11656 ft 363 kts 169°
2026-04-24 15:52 48.02038 17.59251 12328 ft 365 kts 169°
2026-04-24 15:52 47.99535 17.60005 12985 ft 367 kts 169°
2026-04-24 15:53 47.97051 17.60753 13487 ft 371 kts 168°
2026-04-24 15:53 47.94512 17.61520 14140 ft 373 kts 169°
2026-04-24 15:53 47.91967 17.62287 14704 ft 376 kts 168°
2026-04-24 15:53 47.89406 17.63058 15243 ft 379 kts 169°
2026-04-24 15:54 47.86832 17.63831 15847 ft 380 kts 168°
2026-04-24 15:54 47.84232 17.64610 16391 ft 382 kts 168°
2026-04-24 15:54 47.81632 17.65385 16924 ft 384 kts 170°
2026-04-24 15:54 47.78977 17.65676 17397 ft 384 kts 186°
2026-04-24 15:55 47.76379 17.64885 17879 ft 382 kts 201°
2026-04-24 15:55 47.73908 17.63424 18384 ft 383 kts 205°
2026-04-24 15:55 47.71467 17.61856 18867 ft 386 kts 206°
2026-04-24 15:55 47.68992 17.60257 19302 ft 389 kts 206°
2026-04-24 15:56 47.66526 17.58682 19744 ft 392 kts 206°
2026-04-24 15:56 47.64005 17.57085 20196 ft 394 kts 205°
2026-04-24 15:56 47.61484 17.55502 20629 ft 397 kts 205°
2026-04-24 15:56 47.58955 17.53921 21052 ft 399 kts 205°
2026-04-24 15:57 47.56380 17.52316 21488 ft 402 kts 205°
2026-04-24 15:57 47.53816 17.50720 21900 ft 404 kts 205°
2026-04-24 15:57 47.52066 17.49632 22170 ft 406 kts 205°
2026-04-24 15:57 47.48617 17.47490 22678 ft 410 kts 205°
2026-04-24 15:58 47.45959 17.45845 23093 ft 411 kts 205°
2026-04-24 15:58 47.43319 17.44212 23493 ft 413 kts 205°
2026-04-24 15:58 47.40681 17.42582 23857 ft 416 kts 205°
2026-04-24 15:58 47.38009 17.40929 24226 ft 418 kts 205°
2026-04-24 15:59 47.35308 17.39262 24577 ft 421 kts 205°
2026-04-24 15:59 47.32633 17.37615 24898 ft 423 kts 205°
2026-04-24 15:59 47.29921 17.35946 25233 ft 426 kts 205°
2026-04-24 15:59 47.27103 17.34502 25523 ft 430 kts 192°
2026-04-24 16:00 47.24124 17.34280 25815 ft 433 kts 173°
2026-04-24 16:00 47.21218 17.35350 26150 ft 433 kts 158°
2026-04-24 16:00 47.18410 17.36949 26459 ft 435 kts 157°
2026-04-24 16:00 47.15583 17.38600 26736 ft 438 kts 157°
2026-04-24 16:01 47.12757 17.40238 27060 ft 440 kts 157°
2026-04-24 16:01 47.09914 17.41864 27368 ft 441 kts 157°
2026-04-24 16:01 47.07024 17.43500 27644 ft 444 kts 157°
2026-04-24 16:01 47.04150 17.45115 27926 ft 446 kts 157°
2026-04-24 16:02 47.01243 17.46741 28225 ft 448 kts 157°
2026-04-24 16:02 46.98352 17.48352 28531 ft 449 kts 157°
2026-04-24 16:02 46.95417 17.49986 28812 ft 451 kts 157°
2026-04-24 16:02 46.92510 17.51602 29021 ft 453 kts 157°
2026-04-24 16:03 46.86630 17.54863 29034 ft 452 kts 157°
2026-04-24 16:03 46.80755 17.58111 29037 ft 452 kts 157°
2026-04-24 16:04 46.74887 17.61350 29019 ft 453 kts 157°
2026-04-24 16:04 46.68996 17.64593 29026 ft 453 kts 157°
2026-04-24 16:05 46.60183 17.69430 29037 ft 452 kts 158°
2026-04-24 16:06 46.51387 17.74241 29038 ft 452 kts 158°
2026-04-24 16:07 46.42559 17.79056 29038 ft 452 kts 158°
2026-04-24 16:07 46.33738 17.83847 29041 ft 452 kts 158°
2026-04-24 16:08 46.24904 17.88631 29046 ft 452 kts 158°
2026-04-24 16:09 46.16101 17.93382 29046 ft 452 kts 158°
2026-04-24 16:09 46.10215 17.96548 29051 ft 451 kts 158°
2026-04-24 16:11 45.95580 18.04392 29048 ft 451 kts 158°
2026-04-24 16:11 45.89682 18.07539 29057 ft 452 kts 157°
2026-04-24 16:12 45.80818 18.12008 29050 ft 452 kts 165°
2026-04-24 16:12 45.74563 18.12614 29055 ft 454 kts 184°
2026-04-24 16:13 45.71446 18.12059 29058 ft 454 kts 187°
2026-04-24 16:14 45.58984 18.09134 29057 ft 454 kts 193°
2026-04-24 16:14 45.49941 18.05382 29032 ft 454 kts 197°
2026-04-24 16:15 45.47918 18.04517 28726 ft 458 kts 197°
2026-04-24 16:15 45.40736 18.01457 26889 ft 464 kts 196°
2026-04-24 16:16 45.34626 17.98869 25840 ft 454 kts 196°
2026-04-24 16:16 45.31626 17.97600 25359 ft 449 kts 196°
2026-04-24 16:17 45.22794 17.93872 23944 ft 435 kts 196°
2026-04-24 16:17 45.17086 17.91469 23029 ft 428 kts 196°
2026-04-24 16:18 45.11421 17.89090 22114 ft 421 kts 196°
2026-04-24 16:18 45.05780 17.87631 21130 ft 411 kts 171°
2026-04-24 16:18 45.03124 17.88862 20670 ft 400 kts 147°
2026-04-24 16:19 44.99524 17.94464 19823 ft 382 kts 122°
2026-04-24 16:19 44.98016 17.97506 19385 ft 380 kts 121°
2026-04-24 16:20 44.95119 18.03640 18509 ft 375 kts 120°
2026-04-24 16:20 44.92213 18.09666 17665 ft 370 kts 121°
2026-04-24 16:20 44.90758 18.12653 17243 ft 368 kts 121°
2026-04-24 16:21 44.87879 18.18542 16385 ft 365 kts 121°
2026-04-24 16:21 44.86443 18.21477 15962 ft 363 kts 121°
2026-04-24 16:21 44.85028 18.24363 15542 ft 361 kts 121°
2026-04-24 16:22 44.83607 18.27266 15118 ft 358 kts 121°
2026-04-24 16:22 44.80805 18.32979 14266 ft 355 kts 121°
2026-04-24 16:22 44.79402 18.35833 13839 ft 354 kts 121°
2026-04-24 16:23 44.78002 18.38675 13403 ft 353 kts 121°
2026-04-24 16:23 44.76605 18.41511 12947 ft 350 kts 121°
2026-04-24 16:23 44.75242 18.44274 12571 ft 348 kts 121°
2026-04-24 16:24 44.72482 18.49864 11722 ft 346 kts 121°
2026-04-24 16:24 44.71130 18.52597 11282 ft 343 kts 121°
2026-04-24 16:24 44.69768 18.55347 10908 ft 339 kts 121°
2026-04-24 16:24 44.68453 18.58001 10723 ft 329 kts 121°
2026-04-24 16:25 44.67159 18.60603 10678 ft 315 kts 121°
2026-04-24 16:25 44.65937 18.63060 10584 ft 300 kts 121°
2026-04-24 16:25 44.64771 18.65406 10527 ft 286 kts 122°
2026-04-24 16:26 44.62881 18.70103 10333 ft 274 kts 101°
2026-04-24 16:26 44.62519 18.72702 9971 ft 271 kts 95°
2026-04-24 16:26 44.61971 18.77900 9290 ft 269 kts 94°
2026-04-24 16:27 44.61691 18.80466 8963 ft 267 kts 95°
2026-04-24 16:27 44.61403 18.83015 8641 ft 265 kts 95°
2026-04-24 16:27 44.61111 18.85547 8338 ft 264 kts 95°
2026-04-24 16:27 44.60813 18.88105 8043 ft 263 kts 95°
2026-04-24 16:28 44.60519 18.90599 7672 ft 261 kts 96°
2026-04-24 16:28 44.60223 18.93111 7358 ft 260 kts 96°
2026-04-24 16:28 44.59450 18.98025 6712 ft 264 kts 118°
2026-04-24 16:29 44.58150 18.99780 6393 ft 266 kts 153°
2026-04-24 16:29 44.56399 19.00630 6086 ft 263 kts 166°
2026-04-24 16:29 44.52891 19.01874 5474 ft 259 kts 166°
2026-04-24 16:30 44.49342 19.01968 4871 ft 253 kts 188°
2026-04-24 16:30 44.47614 19.01645 4581 ft 250 kts 189°
2026-04-24 16:30 44.45906 19.01319 4269 ft 249 kts 192°
2026-04-24 16:31 44.44340 19.00392 3894 ft 243 kts 226°
2026-04-24 16:31 44.43534 18.98475 3667 ft 224 kts 265°
2026-04-24 16:31 44.43675 18.96374 3626 ft 216 kts 287°
2026-04-24 16:31 44.44024 18.94426 3649 ft 201 kts 286°
2026-04-24 16:32 44.44208 18.93150 3459 ft 199 kts 283°
2026-04-24 16:32 44.44466 18.90649 3083 ft 191 kts 279°
2026-04-24 16:32 44.44603 18.88853 2841 ft 184 kts 279°
2026-04-24 16:32 44.44729 18.87103 2603 ft 175 kts 279°
2026-04-24 16:33 44.44851 18.85477 2399 ft 158 kts 279°
2026-04-24 16:33 44.44961 18.84028 2177 ft 145 kts 279°
2026-04-24 16:33 44.45070 18.82639 2008 ft 143 kts 279°
2026-04-24 16:33 44.45181 18.81254 1819 ft 143 kts 278°
2026-04-24 16:34 44.45288 18.79875 1634 ft 142 kts 278°
2026-04-24 16:34 44.45396 18.78511 1420 ft 141 kts 278°
2026-04-24 16:34 44.45496 18.77148 1256 ft 141 kts 277°
2026-04-24 16:34 44.45598 18.75784 1050 ft 140 kts 278°
2026-04-24 16:35 44.45712 18.74433 883 ft 141 kts 279°
2026-04-24 16:35 44.45817 18.73120 786 ft 123 kts 277°
2026-04-24 16:35 44.45892 18.72164 775 ft 74 kts 276°
2026-04-24 16:35 44.45934 18.71634 773 ft 46 kts 277°
2026-04-24 16:36 44.45965 18.71238 768 ft 36 kts 276°
2026-04-24 16:36 44.46000 18.70976 763 ft 18 kts 304°
2026-04-24 16:36 44.46090 18.70924 764 ft 14 kts
2026-04-24 16:36 44.46179 18.70942 766 ft 12 kts 10°
2026-04-24 16:37 44.46259 18.70959 768 ft 10 kts
2026-04-24 16:37 44.46323 18.70965 769 ft 3 kts
2026-04-24 16:37 44.46333 18.70968 770 ft 0 kts 21°
2026-04-24 16:37 44.46341 18.70976 770 ft 1 kts 44°
2026-04-24 16:38 44.46342 18.70976 770 ft 0 kts 46°
2026-04-24 16:38 44.46341 18.70980 770 ft 0 kts 97°
2026-04-24 16:38 44.46341 18.70987 770 ft 0 kts 97°